STARLINK-35989 (66819 NORAD) Tracking and Keplerian Element Data

This shows tracking and keplerian element data for the satellite.

Feedback or suggestion? Click here.




ElementValue
Catalog66819
NameSTARLINK-35989
Epoch Orbit416
Epoch Day354.25003472
Epoch Year2025
RAAN206.3509
Inclination42.9989
Eccentricity0.0001439
Argument of Perigee256.9654
Mean Anonmoly15.4837
Mean Motion15.63546888
Decay Rate-0.0198792
L11 66819U 25278AE 25354.25003472 -.01987920 00000+0 -23695-1 0 9999
L22 66819 42.9989 206.3509 0001439 256.9654 15.4837 15.63546888 4165



Live tracking and technical data element details for STARLINK-35989 (NORAD 66819). STARLINK-35989 can be tracked NOW for your location showing map with azimuth and elevation plus other details from your city location.







IsCatalogInMostPopularTable: catalog: 66819, numindb: 12
Update: records affected: 1



GetName: 66819 STARLINK-35989

Hit Count: updated at: Tue, 17 Feb 2026 12:09:01 GMT